When you browse on this site, cookies collect data to enhance your experience and personalize the content and advertising you see.
Visit our Privacy Policy to learn more. By continuing to use the site, you agree to this use of cookies and data.
  • In Czech Republic
  • List of Countries
  • For 7 days
  • Water Temperature
  • Satellite Maps
  • Weather Map
  • Weather Widgets
  • user-avatar
    Login

    Hourly Weather Pilatovschina

    Today, 21 January, Monday

    Time Temperature Precipitation Wind Pressure Humidity
    00:00 -13°C° 0 mm 3 mps 745 mmHg 93%
    01:00 -13°C° 0 mm 3 mps 745 mmHg 94%
    02:00 -13°C° 0 mm 3 mps 745 mmHg 94%
    03:00 -14°C° 0 mm 3 mps 746 mmHg 94%
    04:00 -14°C° 0 mm 3 mps 746 mmHg 94%
    05:00 -14°C° 0 mm 3 mps 746 mmHg 95%
    06:00 -14°C° 0 mm 3 mps 746 mmHg 95%
    07:00 -14°C° 0 mm 3 mps 746 mmHg 95%
    08:00 -13°C° 0 mm 3 mps 746 mmHg 95%
    09:00 -13°C° 0 mm 3 mps 747 mmHg 95%
    10:00 -12°C° 0 mm 3 mps 747 mmHg 94%
    11:00 -11°C° 0 mm 4 mps 747 mmHg 93%
    12:00 -10°C° 0 mm 4 mps 747 mmHg 92%
    13:00 -10°C° 0 mm 4 mps 747 mmHg 92%
    14:00 -9°C° 0 mm 4 mps 747 mmHg 92%
    15:00 -8°C° 0 mm 3 mps 747 mmHg 92%
    16:00 -8°C° 0 mm 3 mps 748 mmHg 93%
    17:00 -8°C° 0 mm 3 mps 748 mmHg 93%
    18:00 -8°C° 0 mm 2 mps 748 mmHg 94%
    19:00 -8°C° 0 mm 2 mps 748 mmHg 94%
    20:00 -9°C° 0 mm 2 mps 749 mmHg 95%
    21:00 -10°C° 0 mm 2 mps 749 mmHg 95%
    22:00 -11°C° 0 mm 1 mps 749 mmHg 96%
    23:00 -12°C° 0 mm 1 mps 749 mmHg 96%

    Tomorrow, 22 January, Tuesday

    Time Temperature Precipitation Wind Pressure Humidity
    00:00 -13°C° 0 mm 1 mps 750 mmHg 97%
    01:00 -14°C° 0 mm 0 mps 750 mmHg 97%
    02:00 -15°C° 0 mm 0 mps 750 mmHg 97%
    03:00 -15°C° 0 mm 0 mps 750 mmHg 97%
    04:00 -15°C° 0 mm 0 mps 750 mmHg 97%
    05:00 -16°C° 0 mm 0 mps 750 mmHg 98%
    06:00 -15°C° 0 mm 1 mps 750 mmHg 98%
    07:00 -15°C° 0 mm 1 mps 750 mmHg 98%
    08:00 -14°C° 0 mm 1 mps 750 mmHg 98%
    09:00 -13°C° 0 mm 1 mps 750 mmHg 97%
    10:00 -13°C° 0 mm 2 mps 750 mmHg 96%
    11:00 -12°C° 0 mm 2 mps 751 mmHg 96%
    12:00 -10°C° 0 mm 2 mps 750 mmHg 95%
    13:00 -10°C° 0 mm 2 mps 750 mmHg 95%
    14:00 -10°C° 0 mm 3 mps 750 mmHg 95%
    15:00 -9°C° 0 mm 2 mps 750 mmHg 95%
    16:00 -9°C° 0 mm 2 mps 749 mmHg 95%
    17:00 -9°C° 0 mm 2 mps 749 mmHg 94%
    18:00 -9°C° 0 mm 2 mps 749 mmHg 95%
    19:00 -9°C° 0 mm 2 mps 749 mmHg 95%
    20:00 -10°C° 0 mm 3 mps 749 mmHg 96%
    21:00 -10°C° 0 mm 3 mps 749 mmHg 96%
    22:00 -9°C° 0 mm 3 mps 749 mmHg 96%
    23:00 -9°C° 0 mm 3 mps 748 mmHg 96%

    Day after tomorrow, 23 January, Wednesday

    Time Temperature Precipitation Wind Pressure Humidity
    00:00 -9°C° 0 mm 3 mps 748 mmHg 96%
    01:00 -10°C° 0 mm 3 mps 748 mmHg 96%
    02:00 -9°C° 0 mm 2 mps 748 mmHg 95%
    03:00 -12°C° 0 mm 2 mps 748 mmHg 96%
    04:00 -13°C° 0 mm 2 mps 747 mmHg 96%
    05:00 -14°C° 0 mm 2 mps 747 mmHg 96%
    06:00 -15°C° 0 mm 2 mps 747 mmHg 97%
    07:00 -15°C° 0 mm 2 mps 747 mmHg 97%
    08:00 -16°C° 0 mm 2 mps 747 mmHg 97%
    09:00 -15°C° 0 mm 2 mps 747 mmHg 95%
    10:00 -15°C° 0 mm 3 mps 747 mmHg 93%
    11:00 -15°C° 0 mm 3 mps 747 mmHg 90%
    12:00 -14°C° 0 mm 3 mps 747 mmHg 91%
    13:00 -13°C° 0 mm 2 mps 747 mmHg 91%
    14:00 -12°C° 0 mm 2 mps 747 mmHg 92%
    15:00 -14°C° 0 mm 2 mps 747 mmHg 93%
    16:00 -15°C° 0 mm 2 mps 747 mmHg 95%
    17:00 -16°C° 0 mm 2 mps 747 mmHg 96%
    18:00 -16°C° 0 mm 2 mps 747 mmHg 97%
    19:00 -14°C° 0 mm 1 mps 747 mmHg 97%
    20:00 -13°C° 0 mm 1 mps 747 mmHg 97%
    21:00 -13°C° 0 mm 1 mps 747 mmHg 97%
    22:00 -13°C° 0 mm 1 mps 747 mmHg 97%
    23:00 -13°C° 0 mm 1 mps 748 mmHg 97%

    24 January, Thursday

    Time Temperature Precipitation Wind Pressure Humidity
    00:00 -13°C° 0 mm 1 mps 748 mmHg 97%
    01:00 -14°C° 0 mm 1 mps 748 mmHg 97%
    02:00 -15°C° 0 mm 1 mps 748 mmHg 98%
    03:00 -15°C° 0 mm 1 mps 748 mmHg 98%
    04:00 -15°C° 0 mm 1 mps 748 mmHg 98%
    05:00 -15°C° 0 mm 1 mps 748 mmHg 98%
    06:00 -15°C° 0 mm 1 mps 749 mmHg 98%
    07:00 -15°C° 0 mm 1 mps 749 mmHg 98%
    08:00 -15°C° 0 mm 1 mps 750 mmHg 98%
    09:00 -14°C° 0 mm 1 mps 750 mmHg 97%
    10:00 -13°C° 0 mm 1 mps 751 mmHg 95%
    11:00 -12°C° 0 mm 1 mps 751 mmHg 94%
    12:00 -11°C° 0 mm 1 mps 751 mmHg 93%
    13:00 -10°C° 0 mm 1 mps 751 mmHg 91%
    14:00 -9°C° 0 mm 1 mps 751 mmHg 90%
    15:00 -10°C° 0 mm 1 mps 752 mmHg 91%
    16:00 -11°C° 0 mm 1 mps 752 mmHg 92%
    17:00 -12°C° 0 mm 1 mps 752 mmHg 94%
    18:00 -12°C° 0 mm 1 mps 752 mmHg 94%
    19:00 -11°C° 0 mm 1 mps 752 mmHg 95%
    20:00 -10°C° 0 mm 0 mps 753 mmHg 95%
    21:00 -10°C° 0 mm 0 mps 753 mmHg 95%
    22:00 -10°C° 0 mm 1 mps 753 mmHg 95%
    23:00 -10°C° 0 mm 1 mps 753 mmHg 95%

    25 January, Friday

    Time Temperature Precipitation Wind Pressure Humidity
    00:00 -10°C° 0 mm 1 mps 754 mmHg 96%
    01:00 -10°C° 0 mm 1 mps 754 mmHg 96%
    02:00 -10°C° 0 mm 1 mps 754 mmHg 96%
    03:00 -11°C° 0 mm 1 mps 754 mmHg 96%
    04:00 -11°C° 0 mm 1 mps 753 mmHg 96%
    05:00 -13°C° 0 mm 2 mps 753 mmHg 97%
    06:00 -13°C° 0 mm 2 mps 753 mmHg 97%
    07:00 -13°C° 0 mm 2 mps 754 mmHg 96%
    08:00 -13°C° 0 mm 2 mps 754 mmHg 96%
    09:00 -13°C° 0 mm 2 mps 754 mmHg 96%
    10:00 -12°C° 0 mm 2 mps 753 mmHg 95%
    11:00 -12°C° 0 mm 2 mps 753 mmHg 95%
    12:00 -13°C° 0 mm 3 mps 753 mmHg 94%
    13:00 -13°C° 0 mm 3 mps 753 mmHg 94%
    14:00 -13°C° 0 mm 3 mps 752 mmHg 93%
    15:00 -14°C° 0 mm 3 mps 752 mmHg 94%
    16:00 -15°C° 0 mm 3 mps 752 mmHg 95%
    17:00 -15°C° 0 mm 2 mps 751 mmHg 95%
    18:00 -17°C° 0 mm 3 mps 751 mmHg 96%
    19:00 -18°C° 0 mm 3 mps 751 mmHg 96%
    20:00 -19°C° 0 mm 3 mps 750 mmHg 96%
    21:00 -19°C° 0 mm 3 mps 750 mmHg 96%
    22:00 -19°C° 0 mm 3 mps 750 mmHg 97%
    23:00 -19°C° 0 mm 3 mps 749 mmHg 97%

    26 January, Saturday

    Time Temperature Precipitation Wind Pressure Humidity
    00:00 -19°C° 0 mm 3 mps 749 mmHg 97%
    01:00 -19°C° 0 mm 3 mps 748 mmHg 97%
    02:00 -19°C° 0 mm 3 mps 748 mmHg 96%
    03:00 -19°C° 0 mm 3 mps 747 mmHg 96%
    04:00 -20°C° 0 mm 4 mps 746 mmHg 95%
    05:00 -22°C° 0 mm 4 mps 746 mmHg 94%
    06:00 -20°C° 0 mm 4 mps 745 mmHg 94%
    07:00 -20°C° 0 mm 4 mps 745 mmHg 93%
    08:00 -21°C° 0 mm 5 mps 744 mmHg 92%
    09:00 -20°C° 0 mm 5 mps 744 mmHg 91%
    10:00 -20°C° 0 mm 5 mps 743 mmHg 91%
    11:00 -20°C° 0 mm 6 mps 743 mmHg 90%
    12:00 -18°C° 0 mm 5 mps 742 mmHg 90%
    13:00 -18°C° 0 mm 5 mps 741 mmHg 90%
    14:00 -17°C° 0 mm 5 mps 740 mmHg 90%
    15:00 -17°C° 0.3 mm 5 mps 740 mmHg 91%
    16:00 -17°C° 0.3 mm 5 mps 739 mmHg 92%
    17:00 -17°C° 0.3 mm 5 mps 739 mmHg 93%
    18:00 -17°C° 0.2 mm 5 mps 739 mmHg 93%
    19:00 -15°C° 0.2 mm 5 mps 738 mmHg 92%
    20:00 -15°C° 0.2 mm 4 mps 738 mmHg 92%
    21:00 -14°C° 0.1 mm 4 mps 738 mmHg 92%
    22:00 -14°C° 0.1 mm 4 mps 737 mmHg 92%
    23:00 -12°C° 0.1 mm 4 mps 737 mmHg 92%
    Show more